Florence, SC

8:48 PM EDT on April 24, 2018 (GMT -0400)
Florence Regional

Weather History for KFLO - May, 2013

Change the Weather History Date:

Friday, May 31, 2013

  Actual Average Record
Temperature  
Mean Temperature 77 °F 75 °F  
Max Temperature 89 °F 86 °F 102 °F (1953)
Min Temperature 64 °F 64 °F 45 °F (1984)
Degree Days  
Heating Degree Days 0 0  
Month to date heating degree days 24 22  
Since 1 July heating degree days 2335 2523  
Cooling Degree Days 12 10  
Month to date cooling degree days 172 211  
Year to date cooling degree days 267 307  
Growing Degree Days 26 (Base 50)    
Moisture  
Dew Point 66 °F    
Average Humidity 70    
Maximum Humidity 93    
Minimum Humidity 46    
Precipitation  
Precipitation 0.00 in 0.13 in 1.51 in (2010)
Month to date precipitation 4.84 3.26  
Year to date precipitation 18.83 15.36  
Sea Level Pressure  
Sea Level Pressure 30.20 in    
Wind  
Wind Speed 4 mph (SSE)    
Max Wind Speed 18 mph    
Max Gust Speed 23 mph    
Visibility 7 miles    
Events Fog    
T = Trace of Precipitation, MM = Missing Value Source: NWS Daily Summary

Daily Weather History Graph

Daily Weather History Graph

Search for Another Location

Airport or City:

Astronomy

May. 31, 2013 Rise Set
Actual Time 6:08 AM EDT 8:25 PM EDT
Civil Twilight 5:39 AM EDT 8:53 PM EDT
Nautical Twilight 5:04 AM EDT 9:29 PM EDT
Astronomical Twilight 4:26 AM EDT 10:07 PM EDT
Moon 1:11 AM EDT (5/31) 1:08 PM EDT (5/31)
Length of Visible Light 15h 14m
Length of Day
14h 16m
Waning Gibbous, 51% of the Moon is Illuminated
May 31
Waning Gibbous
May 31
Last Quarter
Jun 8
New
Jun 16
First Quarter
Jun 23
Full

Hourly Weather History & Observations

Time (EDT) Temp. Heat Index Dew Point Humidity Pressure Visibility Wind Dir Wind Speed Gust Speed Precip Events Conditions
12:53 AM 70.0 °F - 66.0 °F 87% 30.22 in 10.0 mi Calm Calm - N/A   Clear
1:53 AM 69.1 °F - 66.0 °F 90% 30.21 in 10.0 mi Calm Calm - N/A   Clear
2:53 AM 66.9 °F - 64.9 °F 93% 30.20 in 10.0 mi Calm Calm - N/A   Clear
3:53 AM 66.0 °F - 63.0 °F 90% 30.20 in 10.0 mi Calm Calm - N/A   Clear
4:53 AM 66.0 °F - 63.0 °F 90% 30.20 in 9.0 mi Calm Calm - N/A   Clear
5:53 AM 64.9 °F - 62.1 °F 90% 30.21 in 10.0 mi Calm Calm - N/A   Clear
6:19 AM 64.4 °F - 62.6 °F 94% 30.22 in 1.8 mi Calm Calm - N/A   Scattered Clouds
6:24 AM 64.4 °F - 62.6 °F 94% 30.22 in 1.2 mi Calm Calm - N/A   Mostly Cloudy
6:29 AM 64.4 °F - 62.6 °F 94% 30.22 in 3.0 mi Calm Calm - N/A   Mostly Cloudy
6:34 AM 64.4 °F - 62.6 °F 94% 30.22 in 2.0 mi Calm Calm - N/A Fog Shallow Fog
6:49 AM 64.4 °F - 64.4 °F 100% 30.22 in 0.2 mi ESE 3.5 mph - N/A Fog Fog
6:50 AM 64.4 °F - 64.4 °F 100% 30.22 in 0.2 mi ESE 3.5 mph - N/A Fog Fog
6:53 AM 66.0 °F - 64.0 °F 93% 30.22 in 0.2 mi ESE 4.6 mph - N/A Fog Fog
7:38 AM 66.2 °F - 66.2 °F 100% 30.22 in 0.2 mi ESE 4.6 mph - N/A Fog Fog
7:53 AM 68.0 °F - 66.9 °F 96% 30.22 in 0.2 mi Calm Calm - N/A Fog Fog
8:40 AM 69.8 °F - 68.0 °F 94% 30.24 in 0.8 mi Calm Calm - N/A   Mist
8:53 AM 71.1 °F - 69.1 °F 93% 30.23 in 5.0 mi Calm Calm - N/A   Overcast
9:02 AM 71.6 °F - 69.8 °F 94% 30.24 in 10.0 mi Calm Calm - N/A   Partly Cloudy
9:53 AM 78.1 °F - 69.1 °F 74% 30.23 in 10.0 mi Variable 3.5 mph - N/A   Scattered Clouds
10:03 AM 78.8 °F - 69.8 °F 74% 30.24 in 10.0 mi Variable 4.6 mph - N/A   Mostly Cloudy
10:53 AM 79.0 °F - 68.0 °F 69% 30.24 in 10.0 mi SSW 4.6 mph - N/A   Mostly Cloudy
11:53 AM 82.0 °F 84.5 °F 66.9 °F 60% 30.23 in 10.0 mi Variable 4.6 mph - N/A   Scattered Clouds
12:53 PM 84.9 °F 86.6 °F 64.9 °F 51% 30.21 in 10.0 mi Calm Calm - N/A   Clear
1:53 PM 84.0 °F 86.3 °F 66.0 °F 55% 30.19 in 10.0 mi South 4.6 mph - N/A   Clear
2:53 PM 86.0 °F 88.2 °F 66.0 °F 51% 30.17 in 10.0 mi South 4.6 mph - N/A   Partly Cloudy
3:53 PM 86.0 °F 87.3 °F 64.0 °F 48% 30.14 in 10.0 mi SSE 4.6 mph - N/A   Scattered Clouds
4:53 PM 87.1 °F 88.9 °F 64.9 °F 48% 30.13 in 10.0 mi South 6.9 mph - N/A   Mostly Cloudy
5:53 PM 84.9 °F 88.8 °F 69.1 °F 59% 30.12 in 10.0 mi South 12.7 mph 23.0 mph N/A   Partly Cloudy
6:53 PM 82.9 °F 86.5 °F 69.1 °F 63% 30.12 in 10.0 mi South 11.5 mph - N/A   Clear
7:53 PM 81.0 °F 83.8 °F 68.0 °F 65% 30.13 in 10.0 mi South 6.9 mph - N/A   Clear
8:53 PM 77.0 °F - 66.9 °F 71% 30.14 in 10.0 mi Calm Calm - N/A   Clear
9:53 PM 75.0 °F - 66.0 °F 73% 30.15 in 10.0 mi South 6.9 mph - N/A   Clear
10:53 PM 73.0 °F - 66.0 °F 79% 30.16 in 10.0 mi South 5.8 mph - N/A   Clear
11:53 PM 72.0 °F - 66.0 °F 81% 30.16 in 10.0 mi South 4.6 mph - N/A   Clear